Location: Castillon
(43.0896°N, 0.2156°E)
Time: 20:32:22
(UTC+00:00)

COBE Rocket - Pass Details

Date: 16 June 2021
Orbit: 679 x 782 km, 97.1° (Epoch: 23 July)

Event Time Altitude Azimuth Distance (km) Brightness Sun altitude
Exits shadow 23:51:47 42° 239° (WSW) 1,075 4.5 -23.5°
Maximum altitude 23:52:29 45° 263° (W) 1,031 4.5 -23.5°
Drops below altitude 10° 23:57:17 10° 336° (NNW) 2,268 7.3 -23.5°
Sets 23:59:40 0° 342° (NNW) 3,179 8.4 -23.5°
